SCP
0 0 0 0 0 0 0 0 0 0 0 0 0 0 0 0 0 0 0 0 0 0 -0 -0 -0 -0 -0 -1 -1 -1 -2 -2 -1 -1 -1 -1 -0 -0 -0 -0 -0 0 0 0 0 0 0 0 0
0 0 0 0 0 0 0 0 0 0 0 0 0 0 0 0 0 0 0 1 0 0 0 0 -0 -0 -0 -0 -1 -1 -1 -1 -1 -1 -1 -1 -0 -0 -0 -0 0 0 0 0 0 0 0 0 0
0 0 0 0 0 0 0 0 0 0 0 0 0 0 0 0 -0 0 1 1 0 1 1 1 0 -0 -0 -0 -0 -0 -0 -0 -1 -0 -0 -0 -0 -0 -0 0 0 0 0 0 0 0 0 0 -0
0 0 0 0 0 0 0 0 0 0 0 0 0 0 0 -0 0 1 1 1 0 1 1 1 1 1 0 0 0 -0 -0 -0 -0 -0 -0 -0 -0 -0 -0 0 0 0 0 0 0 0 0 0 -0
0 0 0 0 0 0 0 0 0 0 0 0 0 0 0 0 1 2 1 1 1 1 1 1 1 1 1 0 0 0 0 -0 -0 -0 -0 -0 -0 -0 0 0 0 0 0 0 0 0 -0 -0 -0
0 0 0 0 0 0 0 0 0 -0 0 0 0 0 0 0 1 1 1 1 1 1 1 1 1 1 1 1 0 0 0 0 0 -0 -0 -0 0 0 -0 -0 -0 -0 -0 0 0 -0 -0 -0 -0
0 0 0 0 0 0 0 0 0 0 0 0 0 0 0 1 1 1 2 2 1 1 1 1 1 1 1 1 1 1 0 0 0 0 0 -0 0 0 0 -0 -0 -0 -0 -0 -0 -0 -0 -0 -0
0 0 0 0 0 0 0 0 0 0 0 -0 0 0 0 0 1 2 2 2 1 1 1 2 1 1 2 1 1 1 1 0 0 0 0 0 0 0 0 -0 -0 -0 -0 -0 -0 -0 -0 -0 -0
0 0 0 0 0 0 0 0 0 0 0 0 0 0 0 1 1 2 2 2 1 1 1 1 2 2 1 1 1 1 1 1 1 0 0 0 0 0 0 0 0 -0 -0 -0 -0 -0 -0 -0 -0
0 0 0 0 0 0 0 0 0 0 0 0 0 0 -0 1 2 2 2 1 1 1 0 0 1 1 1 2 2 1 1 1 1 1 0 0 0 0 0 0 0 0 -0 -0 -0 -0 -0 -0 -0
0 0 0 0 0 0 0 0 0 0 0 0 0 0 0 0 1 2 2 1 1 1 1 1 1 1 2 2 2 2 2 1 1 1 1 0 0 0 0 0 0 0 0 0 0 0 0 0 -0
0 0 0 0 0 0 0 0 0 0 0 0 0 0 0 0 0 1 0 1 2 1 1 1 1 1 2 2 2 2 2 2 1 1 1 0 0 0 0 0 0 0 0 0 0 0 0 0 0
0 0 0 0 0 0 0 0 0 0 0 0 0 0 0 0 0 0 0 1 1 2 1 1 1 1 1 2 1 2 2 2 1 2 1 1 0 0 0 0 0 0 0 0 0 0 0 0 0
0 0 0 0 0 0 0 0 0 0 0 0 0 0 0 0 0 0 -0 -0 1 1 1 1 1 1 1 2 2 2 2 3 2 1 1 1 1 0 1 0 0 0 0 0 0 0 0 0 0
0 0 -0 -0 0 0 0 0 0 0 0 0 0 0 -0 0 0 0 0 -0 0 1 2 1 2 2 2 2 2 2 2 1 4 2 1 1 1 1 1 0 0 0 0 0 0 0 0 0 0
0 0 0 0 0 0 0 -0 0 0 0 0 0 0 0 0 0 0 0 0 0 1 2 2 2 2 2 1 2 2 2 1 2 2 1 2 2 1 1 0 0 0 0 0 0 0 0 0 0
0 0 0 0 0 0 -0 -0 0 0 0 0 0 0 0 0 0 0 0 0 -0 0 0 1 2 1 1 2 1 0 0 0 0 1 1 1 1 1 1 1 1 0 0 0 0 0 0 0 0
0 0 0 0 0 0 0 0 -0 0 0 -0 0 0 0 0 0 0 0 0 0 0 0 -0 0 0 1 1 0 0 0 0 0 0 1 1 1 1 1 1 1 0 0 0 0 0 0 0 0
0 0 0 0 0 0 0 0 0 0 0 -0 0 0 0 0 0 0 0 0 0 0 0 0 0 1 1 1 1 0 0 1 1 1 1 1 1 1 0 0 0 0 1 1 0 0 0 0 0
0 0 0 0 0 0 0 0 0 -0 0 -0 0 0 0 0 0 0 0 0 0 0 0 0 0 0 1 0 0 0 0 0 1 1 1 1 1 1 1 0 0 1 0 -0 0 0 0 0 0
0 0 0 0 0 0 0 0 0 0 0 0 0 0 0 0 0 0 0 0 0 0 0 0 0 0 0 0 0 1 1 1 1 1 1 1 1 1 1 1 1 1 1 1 0 0 -0 0 0
0 0 0 0 0 0 0 0 0 0 0 0 0 0 0 0 0 0 0 0 0 0 0 0 0 0 0 0 0 1 1 1 1 0 0 0 0 1 1 1 1 1 1 0 0 0 0 0 0
0 0 0 0 0 0 0 0 0 0 0 0 0 0 0 0 0 0 0 0 0 0 0 0 0 0 0 0 0 0 0 0 0 0 0 0 0 0 1 1 1 1 1 1 1 1 1 1 1
0 0 0 0 0 0 0 0 0 0 0 0 0 0 0 0 0 0 0 0 0 0 0 0 0 0 0 0 0 0 0 0 0 0 0 0 0 0 0 1 1 1 1 1 2 2 1 1 1
0 0 0 0 0 0 0 0 0 0 0 0 0 0 0 0 0 0 0 0 0 0 0 0 0 0 0 0 0 0 0 0 0 0 0 0 0 0 0 0 0 0 1 2 2 2 2 2 1
0 0 0 0 0 0 0 0 0 0 0 0 0 0 0 0 0 0 0 0 0 0 0 0 0 0 0 0 0 0 0 0 0 0 0 0 0 0 0 0 0 0 0 1 2 2 2 1 1
0 0 0 0 0 0 0 0 0 0 0 0 0 0 0 0 0 0 0 0 0 0 0 0 0 0 0 0 0 0 0 0 0 0 0 0 0 0 0 0 0 0 0 0 1 1 1 1 1
0 0 0 0 0 0 0 0 0 0 0 0 0 0 0 0 0 0 0 0 0 0 0 0 0 0 -0 -0 -0 0 0 0 0 0 0 0 0 0 0 0 0 0 0 0 0 0 1 1 1
0 0 0 0 0 0 0 0 0 0 0 0 0 0 0 0 0 0 0 0 0 0 0 0 0 0 0 0 0 0 0 0 0 0 0 0 0 0 0 0 0 0 0 0 0 0 0 0 1
0 0 0 0 0 0 0 0 0 0 0 0 0 0 0 0 0 0 0 0 0 0 -0 -0 0 0 0 0 0 0 0 0 0 0 0 0 0 0 0 0 0 0 0 0 0 0 0 0 0
Wind_Speed_500mb
21 20 14 6 8 8 7 12 5 12 16 23 55 17 14 12 8 8 10 28 48 63 64 63 61 57 54 51 48 45 43 39 34 32 30 28 29 33 34 34 33 32 30 29 30 29 28 29 32
18 16 7 7 9 2 10 7 6 5 28 47 29 37 4 4 14 16 13 29 52 61 64 64 62 58 54 50 46 43 41 38 35 33 31 30 32 35 37 36 34 32 32 32 31 30 29 29 29
14 15 10 8 7 13 9 6 8 21 29 29 27 35 13 16 22 1 23 28 46 59 62 63 62 58 53 49 45 42 41 39 37 32 30 33 37 39 39 37 35 34 34 33 31 29 29 31 30
14 13 10 8 14 12 9 7 14 27 11 31 57 14 12 20 7 11 26 17 43 59 60 63 61 56 53 49 44 42 40 38 36 33 32 36 39 40 40 38 35 34 35 33 31 29 28 28 26
16 9 8 4 11 9 13 18 31 19 22 40 51 12 19 13 14 10 19 20 43 59 61 62 59 55 51 49 44 41 39 37 33 33 36 39 41 42 40 38 34 34 34 33 30 28 27 26 24
8 7 7 9 8 8 14 19 11 18 40 29 31 34 15 13 11 6 20 28 47 48 55 59 57 54 50 48 45 42 38 33 32 33 36 41 43 42 40 38 35 33 33 32 30 28 27 24 22
13 8 9 8 8 7 11 12 5 16 33 27 27 10 9 10 5 8 11 30 52 47 51 57 57 53 49 47 43 41 37 32 31 34 37 42 44 43 40 36 33 32 32 33 32 30 27 25 22
14 9 10 10 9 13 13 9 17 17 25 24 14 8 11 15 7 10 15 30 44 45 49 54 55 53 50 48 44 41 39 34 30 32 36 39 41 41 40 36 33 31 30 32 32 31 28 26 23
15 9 7 12 12 12 10 8 12 21 43 46 33 22 12 23 10 17 22 31 40 44 47 49 51 51 49 47 45 43 41 38 35 33 34 37 39 39 39 37 35 33 33 34 35 33 31 29 27
10 9 21 16 14 11 12 26 37 14 28 27 50 31 24 20 13 24 27 34 39 44 46 52 54 54 51 50 50 48 46 43 40 37 33 32 35 37 38 38 37 36 36 36 37 37 35 34 31
12 12 12 13 27 24 29 16 42 17 20 38 37 46 34 28 12 22 25 34 40 41 40 49 55 56 56 55 55 55 51 48 46 44 41 39 39 40 42 41 40 38 38 38 39 39 38 37 34
7 21 20 8 28 16 13 17 14 38 43 59 57 59 42 35 31 31 22 15 35 44 38 40 53 57 57 52 55 59 60 58 55 51 49 48 47 46 45 44 43 44 44 43 44 44 41 40 38
8 11 24 46 37 33 31 32 23 36 65 65 65 51 43 28 34 26 21 15 21 32 48 45 47 58 57 53 38 57 67 64 62 59 55 52 53 53 51 51 50 50 49 50 50 50 49 48 46
14 23 24 20 29 21 14 17 11 53 59 57 46 26 34 49 68 53 25 25 37 33 45 51 52 54 65 62 62 59 57 62 68 65 60 55 48 57 58 58 57 57 55 54 54 55 56 56 54
12 9 14 10 8 9 26 15 22 67 64 49 39 26 29 33 63 54 62 64 39 41 41 52 52 57 64 64 59 70 71 56 65 68 64 62 60 53 61 67 57 61 62 60 60 60 61 65 62
6 8 8 12 3 4 20 15 19 42 48 40 44 47 38 29 55 48 42 18 28 48 52 52 61 64 69 70 64 72 75 73 69 72 72 64 54 58 63 75 65 58 65 68 66 66 66 71 72
13 3 7 16 3 5 6 15 18 28 32 44 47 46 43 44 38 48 33 44 57 66 53 54 66 72 77 79 79 76 73 65 68 71 71 56 51 55 73 76 63 66 66 70 74 73 71 74 77
4 5 6 9 8 3 12 21 23 34 31 44 40 37 36 37 36 34 50 46 56 66 54 38 34 60 71 77 79 71 68 72 68 68 66 65 78 77 65 61 61 68 71 69 74 75 75 75 78
4 5 10 18 17 7 13 10 23 35 29 29 37 29 29 17 18 26 39 49 54 37 32 30 35 34 47 64 72 77 77 68 63 70 65 72 69 55 59 62 53 48 62 57 60 63 63 72 78
10 9 17 17 10 12 12 17 12 6 3 8 14 17 9 7 11 13 14 31 28 30 27 24 28 30 35 41 53 54 52 54 54 69 77 65 62 67 64 63 71 50 73 67 64 64 67 74 74
12 10 14 18 12 4 7 12 10 5 11 21 14 7 9 11 13 15 19 30 33 36 39 36 32 28 24 23 28 33 41 42 45 54 60 62 57 63 67 60 67 73 79 92 82 104 83 76 74
12 23 22 13 7 9 0 7 11 9 8 14 23 19 11 8 12 25 25 27 22 17 22 21 17 14 18 19 22 26 29 33 40 45 46 51 56 54 56 54 53 55 55 64 83 104 92 95 99
19 5 15 9 9 3 4 7 12 11 12 15 15 33 44 49 49 48 43 40 38 34 30 22 17 11 6 1 7 15 22 28 36 42 48 49 49 49 49 48 47 50 53 56 55 67 77 85 92
2 5 14 10 6 2 6 9 9 3 2 7 4 28 34 36 34 31 26 27 27 19 16 13 10 7 8 8 11 16 21 26 34 40 46 50 52 51 51 52 54 50 49 51 54 55 62 68 72
7 9 4 4 4 10 3 4 13 10 5 12 13 27 35 35 35 32 28 22 18 14 11 9 9 12 14 17 22 27 32 38 43 48 54 59 62 64 66 67 69 69 66 63 62 64 67 66 66
4 10 10 10 8 6 1 8 9 12 33 39 44 45 45 42 34 28 25 20 14 7 1 8 14 18 21 26 33 37 42 50 57 62 67 71 74 76 76 75 70 71 70 71 67 62 62 63 70
3 5 4 11 6 5 6 6 6 14 16 24 29 41 38 31 26 21 19 19 20 20 23 25 29 32 37 42 47 50 53 57 64 69 74 78 81 82 81 80 79 67 72 75 72 71 68 63 62
9 10 4 5 7 8 8 6 8 9 11 10 13 23 22 19 18 20 24 29 32 36 40 44 49 55 60 64 69 74 78 80 81 83 86 85 85 81 78 79 81 81 74 70 72 78 79 76 71
3 5 8 8 6 10 4 9 6 12 15 15 12 13 14 16 21 29 34 38 43 47 50 54 57 61 66 69 72 76 79 82 85 88 91 93 93 91 89 81 75 77 84 78 73 71 72 73 74
6 10 10 8 9 5 7 10 8 11 10 14 8 9 12 14 24 32 38 46 52 55 57 59 61 60 59 61 65 67 69 74 78 80 81 81 83 83 88 91 89 79 75 83 80 74 75 78 75
Wind_Direction_500mb
241 244 273 342 51 57 252 257 234 324 2 336 307 283 238 287 239 238 292 180 175 175 175 175 174 176 178 179 179 178 177 175 174 172 173 173 168 160 156 155 152 149 147 144 140 136 135 134 134
219 219 214 94 94 107 259 236 247 359 332 323 323 338 317 274 320 284 147 163 166 175 174 175 176 178 178 179 181 182 181 181 180 178 180 179 171 164 161 160 156 151 148 146 143 139 139 140 137
193 183 143 115 143 205 232 186 350 334 359 358 341 328 319 332 344 169 166 161 174 179 176 176 178 179 179 181 183 184 183 182 180 181 185 179 172 169 167 163 159 156 153 152 147 145 144 141 137
154 130 93 109 214 260 244 307 0 340 348 333 331 319 338 345 329 316 177 172 174 178 177 178 180 181 181 183 185 186 184 183 182 184 184 181 176 174 172 169 166 162 160 158 155 152 151 152 148
148 127 84 160 249 267 275 294 322 324 309 321 330 305 303 350 330 267 208 209 180 178 178 180 181 182 183 184 186 186 183 182 186 186 183 182 180 179 178 177 174 170 168 166 164 162 161 164 160
111 106 88 223 253 259 284 268 301 299 299 317 330 323 293 347 338 289 183 194 183 182 181 183 183 185 186 187 185 185 182 183 186 186 185 184 183 184 184 184 182 180 177 176 174 174 173 172 171
120 87 175 186 245 270 251 299 221 267 284 298 311 256 286 348 11 130 183 180 179 187 187 186 186 186 189 189 187 186 186 186 188 188 187 185 186 187 189 190 191 190 187 186 186 185 184 183 183
130 92 134 229 222 265 245 239 231 273 283 300 309 360 334 331 265 183 178 182 186 192 192 193 190 190 191 192 192 192 193 194 194 193 194 192 192 194 196 198 200 200 199 197 198 198 197 197 198
130 74 192 222 171 244 254 300 282 266 272 288 297 292 325 5 255 212 193 190 198 202 202 200 196 195 194 195 196 196 197 199 200 198 199 202 202 204 207 208 209 209 207 207 208 209 209 208 211
113 147 213 201 187 212 246 250 281 267 289 305 298 291 270 289 326 231 206 199 206 208 206 202 200 200 200 200 202 202 203 204 206 207 210 212 213 215 218 220 221 219 218 217 217 218 218 220 222
165 210 193 224 221 222 246 249 264 283 293 280 277 296 282 240 242 241 235 220 215 214 213 207 205 203 205 206 207 209 209 210 212 214 214 216 219 220 223 225 227 229 230 228 228 227 228 230 231
166 232 212 237 216 213 235 259 247 259 261 277 286 284 296 237 208 213 224 253 251 223 218 214 210 208 212 215 221 221 219 217 218 220 222 224 225 227 229 231 232 233 231 233 236 238 237 238 239
213 241 234 246 250 246 257 256 247 287 279 282 282 281 276 218 191 172 178 231 226 254 232 219 213 213 210 213 220 237 228 227 227 225 223 227 233 236 238 239 236 237 238 237 236 239 240 240 241
210 242 273 282 268 245 200 264 165 270 272 275 282 282 262 237 236 252 260 289 259 251 235 230 227 221 217 212 220 226 233 242 233 231 231 231 233 241 242 243 245 245 244 243 244 244 246 247 247
259 283 325 281 295 242 194 294 206 260 268 271 274 266 251 253 223 231 266 281 282 267 241 235 228 231 231 230 230 230 227 233 242 234 235 238 238 241 247 245 249 250 250 250 249 250 250 252 250
335 57 6 297 15 309 148 263 262 256 247 252 262 261 258 245 235 231 234 268 281 277 258 244 235 233 233 233 234 233 231 232 230 235 236 240 243 252 255 250 251 257 252 252 255 257 257 257 256
12 252 245 312 220 99 189 281 258 286 251 248 254 253 252 256 247 218 215 262 246 272 268 250 244 237 234 232 236 234 232 232 238 239 242 239 251 259 256 254 258 261 259 257 258 258 262 266 268
244 272 285 255 274 12 248 253 277 293 243 236 245 257 255 248 253 232 204 216 229 248 248 248 248 247 245 239 241 239 235 246 249 242 239 262 277 276 268 276 270 265 263 262 264 265 268 271 272
195 251 267 271 259 251 254 275 282 300 245 208 228 243 268 282 258 219 207 215 219 225 236 249 247 235 243 244 244 247 255 249 245 241 255 267 282 281 279 284 284 281 284 281 280 276 276 277 278
221 244 266 285 270 172 293 281 289 311 334 254 237 248 261 283 247 217 221 227 236 225 208 214 224 224 220 229 239 247 251 256 258 248 268 268 278 282 288 292 281 249 302 300 292 292 299 294 287
236 201 248 218 336 267 298 307 329 306 13 8 30 12 318 290 245 213 188 186 189 195 197 201 210 217 228 237 242 247 253 253 254 255 260 266 265 268 272 273 280 277 258 260 281 274 288 284 291
261 214 234 241 129 232 349 265 300 331 343 14 15 25 356 335 176 158 134 123 140 156 192 208 216 228 250 246 250 247 256 260 263 269 272 270 271 276 278 276 273 273 271 268 261 264 255 274 276
232 219 197 188 156 155 329 91 264 337 359 25 32 88 84 85 100 104 103 103 100 102 103 107 109 125 148 166 293 290 285 286 281 279 279 280 283 285 287 287 285 272 269 275 271 264 265 265 263
295 80 44 44 93 70 233 137 289 277 211 104 54 83 77 85 93 102 106 116 113 115 121 127 136 165 194 219 238 249 258 270 277 277 277 276 276 277 278 281 280 277 271 266 268 270 269 269 270
97 68 339 339 346 220 188 83 235 254 292 151 120 81 88 88 84 80 84 88 97 111 126 150 181 209 229 243 251 252 254 257 263 267 271 272 272 273 277 277 274 272 270 270 267 263 264 266 269
161 154 159 213 209 251 34 232 251 72 81 91 103 99 91 83 84 79 68 68 70 69 305 256 260 263 263 258 256 259 264 266 266 266 267 268 268 267 268 267 271 272 274 272 271 270 270 271 270
161 178 176 105 19 65 235 274 17 66 68 82 84 90 84 77 66 55 38 19 3 347 332 316 300 295 293 285 281 278 275 274 273 271 269 269 269 270 267 263 263 262 269 269 270 271 273 275 276
154 151 114 344 173 243 276 234 219 144 148 120 94 86 77 64 47 23 0 347 339 330 321 314 307 302 295 292 289 286 282 280 278 276 273 271 271 270 270 267 263 258 253 258 261 263 265 268 270
116 126 82 119 127 182 200 251 332 205 176 152 131 93 55 39 19 358 348 341 334 327 321 314 309 304 301 298 296 296 294 292 290 287 283 280 276 272 269 268 266 262 256 250 252 257 262 262 266
164 176 143 152 223 221 147 269 26 61 100 126 93 29 28 22 5 354 346 339 335 330 327 322 318 314 310 306 303 301 300 298 295 292 290 287 283 278 272 267 262 262 260 254 250 253 256 263 265
Wind_Speed_850mb
21 20 14 6 8 8 7 12 5 12 16 23 55 17 14 12 8 8 10 28 48 63 64 63 61 57 54 51 48 45 43 39 34 32 30 28 29 33 34 34 33 32 30 29 30 29 28 29 32
18 16 7 7 9 2 10 7 6 5 28 47 29 37 4 4 14 16 13 29 52 61 64 64 62 58 54 50 46 43 41 38 35 33 31 30 32 35 37 36 34 32 32 32 31 30 29 29 29
14 15 10 8 7 13 9 6 8 21 29 29 27 35 13 16 22 1 23 28 46 59 62 63 62 58 53 49 45 42 41 39 37 32 30 33 37 39 39 37 35 34 34 33 31 29 29 31 30
14 13 10 8 14 12 9 7 14 27 11 31 57 14 12 20 7 11 26 17 43 59 60 63 61 56 53 49 44 42 40 38 36 33 32 36 39 40 40 38 35 34 35 33 31 29 28 28 26
16 9 8 4 11 9 13 18 31 19 22 40 51 12 19 13 14 10 19 20 43 59 61 62 59 55 51 49 44 41 39 37 33 33 36 39 41 42 40 38 34 34 34 33 30 28 27 26 24
8 7 7 9 8 8 14 19 11 18 40 29 31 34 15 13 11 6 20 28 47 48 55 59 57 54 50 48 45 42 38 33 32 33 36 41 43 42 40 38 35 33 33 32 30 28 27 24 22
13 8 9 8 8 7 11 12 5 16 33 27 27 10 9 10 5 8 11 30 52 47 51 57 57 53 49 47 43 41 37 32 31 34 37 42 44 43 40 36 33 32 32 33 32 30 27 25 22
14 9 10 10 9 13 13 9 17 17 25 24 14 8 11 15 7 10 15 30 44 45 49 54 55 53 50 48 44 41 39 34 30 32 36 39 41 41 40 36 33 31 30 32 32 31 28 26 23
15 9 7 12 12 12 10 8 12 21 43 46 33 22 12 23 10 17 22 31 40 44 47 49 51 51 49 47 45 43 41 38 35 33 34 37 39 39 39 37 35 33 33 34 35 33 31 29 27
10 9 21 16 14 11 12 26 37 14 28 27 50 31 24 20 13 24 27 34 39 44 46 52 54 54 51 50 50 48 46 43 40 37 33 32 35 37 38 38 37 36 36 36 37 37 35 34 31
12 12 12 13 27 24 29 16 42 17 20 38 37 46 34 28 12 22 25 34 40 41 40 49 55 56 56 55 55 55 51 48 46 44 41 39 39 40 42 41 40 38 38 38 39 39 38 37 34
7 21 20 8 28 16 13 17 14 38 43 59 57 59 42 35 31 31 22 15 35 44 38 40 53 57 57 52 55 59 60 58 55 51 49 48 47 46 45 44 43 44 44 43 44 44 41 40 38
8 11 24 46 37 33 31 32 23 36 65 65 65 51 43 28 34 26 21 15 21 32 48 45 47 58 57 53 38 57 67 64 62 59 55 52 53 53 51 51 50 50 49 50 50 50 49 48 46
14 23 24 20 29 21 14 17 11 53 59 57 46 26 34 49 68 53 25 25 37 33 45 51 52 54 65 62 62 59 57 62 68 65 60 55 48 57 58 58 57 57 55 54 54 55 56 56 54
12 9 14 10 8 9 26 15 22 67 64 49 39 26 29 33 63 54 62 64 39 41 41 52 52 57 64 64 59 70 71 56 65 68 64 62 60 53 61 67 57 61 62 60 60 60 61 65 62
6 8 8 12 3 4 20 15 19 42 48 40 44 47 38 29 55 48 42 18 28 48 52 52 61 64 69 70 64 72 75 73 69 72 72 64 54 58 63 75 65 58 65 68 66 66 66 71 72
13 3 7 16 3 5 6 15 18 28 32 44 47 46 43 44 38 48 33 44 57 66 53 54 66 72 77 79 79 76 73 65 68 71 71 56 51 55 73 76 63 66 66 70 74 73 71 74 77
4 5 6 9 8 3 12 21 23 34 31 44 40 37 36 37 36 34 50 46 56 66 54 38 34 60 71 77 79 71 68 72 68 68 66 65 78 77 65 61 61 68 71 69 74 75 75 75 78
4 5 10 18 17 7 13 10 23 35 29 29 37 29 29 17 18 26 39 49 54 37 32 30 35 34 47 64 72 77 77 68 63 70 65 72 69 55 59 62 53 48 62 57 60 63 63 72 78
10 9 17 17 10 12 12 17 12 6 3 8 14 17 9 7 11 13 14 31 28 30 27 24 28 30 35 41 53 54 52 54 54 69 77 65 62 67 64 63 71 50 73 67 64 64 67 74 74
12 10 14 18 12 4 7 12 10 5 11 21 14 7 9 11 13 15 19 30 33 36 39 36 32 28 24 23 28 33 41 42 45 54 60 62 57 63 67 60 67 73 79 92 82 104 83 76 74
12 23 22 13 7 9 0 7 11 9 8 14 23 19 11 8 12 25 25 27 22 17 22 21 17 14 18 19 22 26 29 33 40 45 46 51 56 54 56 54 53 55 55 64 83 104 92 95 99
19 5 15 9 9 3 4 7 12 11 12 15 15 33 44 49 49 48 43 40 38 34 30 22 17 11 6 1 7 15 22 28 36 42 48 49 49 49 49 48 47 50 53 56 55 67 77 85 92
2 5 14 10 6 2 6 9 9 3 2 7 4 28 34 36 34 31 26 27 27 19 16 13 10 7 8 8 11 16 21 26 34 40 46 50 52 51 51 52 54 50 49 51 54 55 62 68 72
7 9 4 4 4 10 3 4 13 10 5 12 13 27 35 35 35 32 28 22 18 14 11 9 9 12 14 17 22 27 32 38 43 48 54 59 62 64 66 67 69 69 66 63 62 64 67 66 66
4 10 10 10 8 6 1 8 9 12 33 39 44 45 45 42 34 28 25 20 14 7 1 8 14 18 21 26 33 37 42 50 57 62 67 71 74 76 76 75 70 71 70 71 67 62 62 63 70
3 5 4 11 6 5 6 6 6 14 16 24 29 41 38 31 26 21 19 19 20 20 23 25 29 32 37 42 47 50 53 57 64 69 74 78 81 82 81 80 79 67 72 75 72 71 68 63 62
9 10 4 5 7 8 8 6 8 9 11 10 13 23 22 19 18 20 24 29 32 36 40 44 49 55 60 64 69 74 78 80 81 83 86 85 85 81 78 79 81 81 74 70 72 78 79 76 71
3 5 8 8 6 10 4 9 6 12 15 15 12 13 14 16 21 29 34 38 43 47 50 54 57 61 66 69 72 76 79 82 85 88 91 93 93 91 89 81 75 77 84 78 73 71 72 73 74
6 10 10 8 9 5 7 10 8 11 10 14 8 9 12 14 24 32 38 46 52 55 57 59 61 60 59 61 65 67 69 74 78 80 81 81 83 83 88 91 89 79 75 83 80 74 75 78 75
Wind_Direction_850mb
241 244 273 342 51 57 252 257 234 324 2 336 307 283 238 287 239 238 292 180 175 175 175 175 174 176 178 179 179 178 177 175 174 172 173 173 168 160 156 155 152 149 147 144 140 136 135 134 134
219 219 214 94 94 107 259 236 247 359 332 323 323 338 317 274 320 284 147 163 166 175 174 175 176 178 178 179 181 182 181 181 180 178 180 179 171 164 161 160 156 151 148 146 143 139 139 140 137
193 183 143 115 143 205 232 186 350 334 359 358 341 328 319 332 344 169 166 161 174 179 176 176 178 179 179 181 183 184 183 182 180 181 185 179 172 169 167 163 159 156 153 152 147 145 144 141 137
154 130 93 109 214 260 244 307 0 340 348 333 331 319 338 345 329 316 177 172 174 178 177 178 180 181 181 183 185 186 184 183 182 184 184 181 176 174 172 169 166 162 160 158 155 152 151 152 148
148 127 84 160 249 267 275 294 322 324 309 321 330 305 303 350 330 267 208 209 180 178 178 180 181 182 183 184 186 186 183 182 186 186 183 182 180 179 178 177 174 170 168 166 164 162 161 164 160
111 106 88 223 253 259 284 268 301 299 299 317 330 323 293 347 338 289 183 194 183 182 181 183 183 185 186 187 185 185 182 183 186 186 185 184 183 184 184 184 182 180 177 176 174 174 173 172 171
120 87 175 186 245 270 251 299 221 267 284 298 311 256 286 348 11 130 183 180 179 187 187 186 186 186 189 189 187 186 186 186 188 188 187 185 186 187 189 190 191 190 187 186 186 185 184 183 183
130 92 134 229 222 265 245 239 231 273 283 300 309 360 334 331 265 183 178 182 186 192 192 193 190 190 191 192 192 192 193 194 194 193 194 192 192 194 196 198 200 200 199 197 198 198 197 197 198
130 74 192 222 171 244 254 300 282 266 272 288 297 292 325 5 255 212 193 190 198 202 202 200 196 195 194 195 196 196 197 199 200 198 199 202 202 204 207 208 209 209 207 207 208 209 209 208 211
113 147 213 201 187 212 246 250 281 267 289 305 298 291 270 289 326 231 206 199 206 208 206 202 200 200 200 200 202 202 203 204 206 207 210 212 213 215 218 220 221 219 218 217 217 218 218 220 222
165 210 193 224 221 222 246 249 264 283 293 280 277 296 282 240 242 241 235 220 215 214 213 207 205 203 205 206 207 209 209 210 212 214 214 216 219 220 223 225 227 229 230 228 228 227 228 230 231
166 232 212 237 216 213 235 259 247 259 261 277 286 284 296 237 208 213 224 253 251 223 218 214 210 208 212 215 221 221 219 217 218 220 222 224 225 227 229 231 232 233 231 233 236 238 237 238 239
213 241 234 246 250 246 257 256 247 287 279 282 282 281 276 218 191 172 178 231 226 254 232 219 213 213 210 213 220 237 228 227 227 225 223 227 233 236 238 239 236 237 238 237 236 239 240 240 241
210 242 273 282 268 245 200 264 165 270 272 275 282 282 262 237 236 252 260 289 259 251 235 230 227 221 217 212 220 226 233 242 233 231 231 231 233 241 242 243 245 245 244 243 244 244 246 247 247
259 283 325 281 295 242 194 294 206 260 268 271 274 266 251 253 223 231 266 281 282 267 241 235 228 231 231 230 230 230 227 233 242 234 235 238 238 241 247 245 249 250 250 250 249 250 250 252 250
335 57 6 297 15 309 148 263 262 256 247 252 262 261 258 245 235 231 234 268 281 277 258 244 235 233 233 233 234 233 231 232 230 235 236 240 243 252 255 250 251 257 252 252 255 257 257 257 256
12 252 245 312 220 99 189 281 258 286 251 248 254 253 252 256 247 218 215 262 246 272 268 250 244 237 234 232 236 234 232 232 238 239 242 239 251 259 256 254 258 261 259 257 258 258 262 266 268
244 272 285 255 274 12 248 253 277 293 243 236 245 257 255 248 253 232 204 216 229 248 248 248 248 247 245 239 241 239 235 246 249 242 239 262 277 276 268 276 270 265 263 262 264 265 268 271 272
195 251 267 271 259 251 254 275 282 300 245 208 228 243 268 282 258 219 207 215 219 225 236 249 247 235 243 244 244 247 255 249 245 241 255 267 282 281 279 284 284 281 284 281 280 276 276 277 278
221 244 266 285 270 172 293 281 289 311 334 254 237 248 261 283 247 217 221 227 236 225 208 214 224 224 220 229 239 247 251 256 258 248 268 268 278 282 288 292 281 249 302 300 292 292 299 294 287
236 201 248 218 336 267 298 307 329 306 13 8 30 12 318 290 245 213 188 186 189 195 197 201 210 217 228 237 242 247 253 253 254 255 260 266 265 268 272 273 280 277 258 260 281 274 288 284 291
261 214 234 241 129 232 349 265 300 331 343 14 15 25 356 335 176 158 134 123 140 156 192 208 216 228 250 246 250 247 256 260 263 269 272 270 271 276 278 276 273 273 271 268 261 264 255 274 276
232 219 197 188 156 155 329 91 264 337 359 25 32 88 84 85 100 104 103 103 100 102 103 107 109 125 148 166 293 290 285 286 281 279 279 280 283 285 287 287 285 272 269 275 271 264 265 265 263
295 80 44 44 93 70 233 137 289 277 211 104 54 83 77 85 93 102 106 116 113 115 121 127 136 165 194 219 238 249 258 270 277 277 277 276 276 277 278 281 280 277 271 266 268 270 269 269 270
97 68 339 339 346 220 188 83 235 254 292 151 120 81 88 88 84 80 84 88 97 111 126 150 181 209 229 243 251 252 254 257 263 267 271 272 272 273 277 277 274 272 270 270 267 263 264 266 269
161 154 159 213 209 251 34 232 251 72 81 91 103 99 91 83 84 79 68 68 70 69 305 256 260 263 263 258 256 259 264 266 266 266 267 268 268 267 268 267 271 272 274 272 271 270 270 271 270
161 178 176 105 19 65 235 274 17 66 68 82 84 90 84 77 66 55 38 19 3 347 332 316 300 295 293 285 281 278 275 274 273 271 269 269 269 270 267 263 263 262 269 269 270 271 273 275 276
154 151 114 344 173 243 276 234 219 144 148 120 94 86 77 64 47 23 0 347 339 330 321 314 307 302 295 292 289 286 282 280 278 276 273 271 271 270 270 267 263 258 253 258 261 263 265 268 270
116 126 82 119 127 182 200 251 332 205 176 152 131 93 55 39 19 358 348 341 334 327 321 314 309 304 301 298 296 296 294 292 290 287 283 280 276 272 269 268 266 262 256 250 252 257 262 262 266
164 176 143 152 223 221 147 269 26 61 100 126 93 29 28 22 5 354 346 339 335 330 327 322 318 314 310 306 303 301 300 298 295 292 290 287 283 278 272 267 262 262 260 254 250 253 256 263 265